Regional Weather Roundup
Issued by NWS Charleston, SC

Current Version | Previous Version | Graphics & Text | Print | Product List | Glossary On
Versions: 1 2 3 4 5 6 7 8 9 10 11 12 13 14 15 16 17 18 19 20 21 22 23 24 25 26 27 28 29 30 31 32 33 34 35 36 37 38 39 40 41 42 43 44 45 46 47 48 49 50
000
ASUS42 KCHS 011727
RWRCHS

REGIONAL WEATHER ROUNDUP
NATIONAL WEATHER SERVICE CHARLESTON SC
100 PM EDT WED JUL 01 2015

NOTE: "FAIR" INDICATES FEW OR NO CLOUDS BELOW 12,000 FEET WITH NO
SIGNIFICANT WEATHER AND/OR OBSTRUCTIONS TO VISIBILITY.

NOT ALL STATIONS ARE QUALITY CONTROLLED BY THE NATIONAL
WEATHER SERVICE. USE DATA WITH CAUTION...ESPECIALLY
DEWPOINT OBSERVATIONS.

SCZ027-030-031-034>040-042>050-011800-
...SOUTHEAST SOUTH CAROLINA...

CITY           SKY/WX    TMP DP  RH WIND       PRES   REMARKS
N CHARLESTON   PTSUNNY   84  70  62 W12       30.03S
WATERFRONT PAR   N/A     83  72  69 W6        30.00S
MOUNT PLEASANT FAIR      84  72  65 SW10      30.02S
JOHNS ISLAND   PTSUNNY   86  73  66 SW13      30.02F HX  93
PINOPOLIS      NOT AVBL
MONCKS CORNER  FAIR      84  72  65 SW10      30.01F
SUMMERVILLE    FAIR      82  72  69 SW8       30.03F
BEAUFORT MCAS  PTSUNNY   84  71  65 W16       30.04S
BEAUFORT ARPT  FAIR      86  72  62 W14       30.03F HX  92
HILTON HEAD IS MOSUNNY   86  72  62 SW12G17   30.06S HX  92
WALTERBORO     PTSUNNY   82  70  65 SW12      30.04S
ALLENDALE      FAIR      84  72  65 VRB7G14   30.03S

...SOUTHERN MIDLANDS AND PEE DEE...

CITY           SKY/WX    TMP DP  RH WIND       PRES   REMARKS
GEORGETOWN     NOT AVBL
KINGSTREE      NOT AVBL
ORANGEBURG     SUNNY     83  70  64 W10       30.03S
BARNWELL       FAIR      84  72  65 W10       30.04S
AIKEN          NOT AVBL
MANNING        FAIR      81  66  61 W8        30.01S
COLUMBIA       CLOUDY    84  68  58 W8        30.01S
SUMTER         PTSUNNY   82  70  67 W9        30.00S
FLORENCE       MOSUNNY   83  71  67 W7        29.99F
MYRTLE BEACH   MOSUNNY   84  70  61 W9        30.02S
N MYRTLE BEACH SUNNY     83  71  67 SW9       30.00S

$$

GAZ063-065-086>088-099>101-113>116-118-119-134>141-150-011800-
...SOUTHEAST GEORGIA...

CITY           SKY/WX    TMP DP  RH WIND       PRES   REMARKS
SAVANNAH ARPT  PTSUNNY   85  69  58 W10       30.05F
HUNTER AAF     NOT AVBL
FORT STEWART   PTSUNNY   86  70  58 W14G20    30.04F HX  90
STATESBORO     PTSUNNY   84  75  74 W6        30.05F HX  93
SYLVANIA       PTSUNNY   86  75  69 W7        30.06S HX  94
CLAXTON        FAIR      82  72  69 SW7       30.06F

...CSRA...CENTRAL AND FAR SOUTHEAST GEORGIA...

CITY           SKY/WX    TMP DP  RH WIND       PRES   REMARKS
THOMSON        MOSUNNY   86  75  69 SW8       30.09R HX  94
AUGUSTA-BUSH   SUNNY     84  70  62 W10       30.04R
AUGUSTA-DANIEL MOSUNNY   85  69  58 SW8       30.04F
SWAINSBORO     CLOUDY    84  73  70 W9        30.08R HX  91
VIDALIA        PTSUNNY   86  72  62 W12       30.07F HX  92
EASTMAN        FAIR      86  72  62 W7        30.09F HX  92
HAZLEHURST     FAIR      87  72  60 W5        30.07S HX  94
ALMA           SUNNY     86  71  60 W12       30.08S HX  91
WAYCROSS       MOSUNNY   91  75  58 W15G21    30.08S HX 102
JESUP          FAIR      90  73  58 SW14G20   30.07F HX  98
BAXLEY         FAIR      88  72  58 W12G17    30.07F HX  94
BRUNSWICK      PTSUNNY   88  72  58 SW10G18   30.08F HX  94
SAINT SIMONS   PTSUNNY   86  70  58 SW16      30.07F HX  90

$$

SCZ027-028-034-036>038-045-046-048>050-GAZ119-141-011800-
...LAKE AND SUPPLEMENTAL COASTAL OBSERVATIONS...

STATION/POSITION TIME  TEMP    WIND        PRES    WAVE   SWELL
                       AIR SEA DIR/SP/G            HT/PER HT/PER/DIR
                 (UTC) (F)     (DEG/KT/KT) (MB)    (FT/S) (FT/S/D)
UPR LAKE MARION  NOT AVBL
WINYAH BAY       1645   82     240/  7     1015.0S
LAKE MURRAY      1700   80     250/  6/ 11 1015.9S
ACE BASIN NERRS  1600   81     130/  2     1017.0
FORT PULASKI     1700   83 84  260/ 10/ 16 1018.1F
SAPELO ISLAND    1700   84     250/ 13     1018.0S

$$

ANZ835-935-AMZ111-154-330-350-352-354-370-450-454-472-011800-
...C-MAN AND BUOY OBSERVATIONS...

STATION/POSITION TIME  TEMP    WIND        PRES    WAVE   SWELL
                       AIR SEA DIR/SP/G            HT/PER HT/PER/DIR
                 (UTC) (F)     (DEG/KT/KT) (MB)    (FT/S) (FT/S/D)
BUOY 41004       1650   79 82  240/ 19/ 23 1016.4F   5/ 9   3/ 9
BUOY 41008       1650   80 79  260/ 12/ 16 1018.4F   3/ 9   2/110/ 9
FOLLY BEACH CMAN 1700   80     210/ 17/ 19 1016.9F
CAPERS NEARSHORE 1608   80     240/ 14/ 16 1017.1R
FRIPP NEARSHORE  1600   80     250/ 16/ 17 1017.3R


STATION/POSITION TIME  TEMP    WIND        PRES    WAVE   SWELL
                       AIR SEA DIR/SP/G            HT/PER HT/PER/DIR
                 (UTC) (F)     (DEG/KT/KT) (MB)    (FT/S) (FT/S/D)
5E ST. MARYS GA  1621      77                N/A     2/ 9
FRYING PAN BUOY  1650   79 80  230/ 16/ 19 1016.4R   5/ 6   2/140/ 9
BUOY 41025       1650   80 83  240/ 19/ 21 1014.5F   5/ 6   3/160/ 8
CAPE LOOKOUT NC  1700   81     230/ 13/ 16 1014.9F
BUOY 41002       1650   81 80  240/ 16/ 19 1019.7R   6/ 6   2/150/ 8
BUOY 41010       1620   83 84  250/ 14/ 16 1021.2F
ST AUGUSTINE FL  1700   89 75  220/ 11/ 13 1020.4F


$$



USA.gov is the U.S. government's official web portal to all federal, state and local government web resources and services.